Tracking 19827 objects as of 22-Aug-2019
HD Live streaming from Space Station
objects crossing your sky now

COSMOS 2251 DEB

Track COSMOS 2251 DEB now!
10-day predictions


NORAD ID: 34451
Int'l Code: 1993-036SU
Perigee: 696.9 km
Apogee: 794.6 km
Inclination: 74.1 °
Period: 99.6 minutes
Semi major axis: 7116 km
RCS: 0.033 m2 (small)
Launch date: June 16, 1993
Source: Commonwealth of Independent States (former USSR) (CIS)
Launch site: PLESETSK MISSILE AND SPACE COMPLEX (PKMTR)

Note: This is SATELLITE DEBRIS
aabbcc
Your satellite tracking list
Your tracking list is empty




NASA's NSSDC Master Catalog

Two Line Element Set (TLE):
1 34451U 93036SU  19233.82868648  .00000533  00000-0  15277-3 0  9992
2 34451  74.0623 136.7717 0068667  45.9094 314.7687 14.46042140551033
Source of the keplerian elements: AFSPC